SITRO-AIS 6 (CHIRKIN)

Last updated on Wed Oct 29 2025 00:03:53 GMT+0000 (Coordinated Universal Time)

1 57192U 23091AC 25301.67729528 .00007854 00000+0 34586-3 0 9998 2 57192 97.5408 358.9341 0012728 189.7586 170.3405 15.22044713129029
UTC large
Height (km)
Speed (km/s)
/
Latitude / Longitude
Inclination (degrees)
Orbital Period (minutes)
Azimuth
Elevation
Range (km)
Doppler Factor

Next 0 passes for location: London (51.5072 / 0.1276)

Sorry there are no passes over London.